Weather History for KIRK - August, 2013

Change the Weather History Date:

Wednesday, August 28, 2013

  Actual Average Record
Temperature  
Mean Temperature 84 °F 71 °F  
Max Temperature 98 °F 82 °F 99 °F (1984)
Min Temperature 70 °F 60 °F 40 °F (1986)
Degree Days  
Heating Degree Days 0 0  
Month to date heating degree days 5 0  
Since 1 June heating degree days 49 17  
Since 1 July heating degree days 13 1  
Cooling Degree Days 19 7  
Month to date cooling degree days 222 256  
Year to date cooling degree days 754 823  
Since 1 June cooling degree days 686 761  
Growing Degree Days 34 (Base 50)    
Moisture  
Dew Point 64 °F    
Average Humidity 56    
Maximum Humidity 79    
Minimum Humidity 33    
Precipitation  
Precipitation 0.00 in 0.13 in 3.04 in (1938)
Month to date precipitation T 3.33  
Year to date precipitation 29.89 26.92  
Sea Level Pressure  
Sea Level Pressure 30.00 in    
Wind  
Wind Speed 6 mph (WSW)    
Max Wind Speed 13 mph    
Max Gust Speed 18 mph    
Visibility 10 miles    
Events      
T = Trace of Precipitation, MM = Missing Value Source: NWS Daily Summary

Daily Weather History Graph

Daily Weather History Graph

Search for Another Location

Airport or City:

Trip Planner

Search our weather history database for the weather conditions in past years. The results will help you decide how hot, cold, wet, or windy it might be!

Date:

Astronomy

Aug. 28, 2013 Rise Set
Actual Time 6:34 AM CDT 7:47 PM CDT
Civil Twilight 6:06 AM CDT 8:15 PM CDT
Nautical Twilight 5:32 AM CDT 8:49 PM CDT
Astronomical Twilight 4:57 AM CDT 9:24 PM CDT
Moon No Moon Rise 2:25 PM CDT (8/28)
Length of Visible Light 14h 09m
Length of Day
13h 13m
Waning Gibbous, 47% of the Moon is Illuminated
Aug 28
Waning Gibbous
Sep 5
New
Sep 12
First Quarter
Sep 19
Full
Sep 26
Last Quarter

Hourly Weather History & Observations

Time (CDT) Temp. Heat Index Dew Point Humidity Pressure Visibility Wind Dir Wind Speed Gust Speed Precip Events Conditions
12:55 AM 75.0 °F - 64.9 °F 71% 29.99 in 10.0 mi SW 5.8 mph - N/A   Clear
1:55 AM 73.9 °F - 64.9 °F 73% 29.98 in 10.0 mi SW 4.6 mph - N/A   Clear
2:55 AM 73.0 °F - 64.9 °F 76% 29.98 in 10.0 mi SW 6.9 mph - N/A   Clear
3:55 AM 72.0 °F - 64.9 °F 78% 29.98 in 10.0 mi SW 4.6 mph - N/A   Clear
4:55 AM 72.0 °F - 64.9 °F 78% 29.99 in 10.0 mi WSW 4.6 mph - N/A   Clear
5:55 AM 71.1 °F - 64.9 °F 81% 30.00 in 10.0 mi WSW 4.6 mph - N/A   Clear
6:55 AM 71.1 °F - 64.9 °F 81% 30.02 in 10.0 mi WSW 5.8 mph - N/A   Clear
7:55 AM 75.0 °F - 64.9 °F 71% 30.03 in 10.0 mi WSW 5.8 mph - N/A   Clear
8:55 AM 79.0 °F - 66.9 °F 66% 30.03 in 10.0 mi WSW 8.1 mph - N/A   Clear
9:55 AM 84.9 °F 87.6 °F 66.9 °F 55% 30.03 in 10.0 mi West 9.2 mph - N/A   Clear
10:55 AM 89.1 °F 91.3 °F 66.0 °F 46% 30.03 in 10.0 mi West 9.2 mph - N/A   Clear
11:55 AM 91.9 °F 94.1 °F 64.9 °F 41% 30.03 in 10.0 mi WSW 8.1 mph 18.4 mph N/A   Clear
12:55 PM 95.0 °F 97.0 °F 64.0 °F 36% 30.02 in 10.0 mi West 9.2 mph - N/A   Clear
1:55 PM 96.1 °F 98.3 °F 64.0 °F 35% 30.00 in 10.0 mi West 10.4 mph - N/A   Clear
2:55 PM 97.0 °F 99.3 °F 64.0 °F 34% 29.99 in 10.0 mi Variable 5.8 mph - N/A   Clear
3:55 PM 97.0 °F 97.8 °F 62.1 °F 31% 29.99 in 10.0 mi Variable 5.8 mph - N/A   Clear
4:55 PM 96.1 °F 97.3 °F 63.0 °F 33% 29.98 in 10.0 mi West 6.9 mph - N/A   Clear
5:55 PM 95.0 °F 96.0 °F 63.0 °F 34% 29.98 in 10.0 mi SW 5.8 mph - N/A   Clear
6:55 PM 91.9 °F 92.5 °F 62.1 °F 37% 29.99 in 10.0 mi WSW 3.5 mph - N/A   Clear
7:55 PM 84.9 °F 86.1 °F 64.0 °F 49% 29.99 in 10.0 mi SW 5.8 mph - N/A   Clear
8:55 PM 81.0 °F 82.5 °F 64.0 °F 56% 30.01 in 10.0 mi SW 5.8 mph - N/A   Clear
9:55 PM 78.1 °F - 64.0 °F 62% 30.01 in 10.0 mi SW 3.5 mph - N/A   Clear
10:55 PM 77.0 °F - 63.0 °F 62% 30.01 in 10.0 mi WSW 3.5 mph - N/A   Clear
11:55 PM 73.0 °F - 64.0 °F 73% 30.01 in 10.0 mi WSW 3.5 mph - N/A   Clear